Theta_e
322 327 333 334 334 336 335 335 333 331 317 316 321 322 312 321 328 327 325 326 328 330 327 325 323 321 320 319 318 318 318 317 316 316 317 316 316 316 315 315 315 315 315
327 325 323 331 334 334 334 331 327 325 317 320 322 322 317 324 327 326 325 328 328 327 326 325 323 321 320 319 318 317 316 316 316 315 315 315 315 315 314 314 314 314 313
319 320 323 322 321 331 332 332 326 324 321 322 324 324 324 327 326 326 327 327 326 325 324 324 322 321 320 319 317 317 315 315 315 314 314 314 314 313 313 312 312 311 311
318 320 322 323 321 325 328 330 326 324 321 324 324 325 326 326 326 327 327 327 326 325 324 322 322 320 320 318 317 315 315 314 314 313 313 312 312 311 311 311 311 310 310
320 321 322 322 318 323 325 326 323 321 323 324 324 325 325 325 326 327 327 326 325 323 322 321 320 319 319 318 316 315 314 313 312 312 311 311 310 310 311 310 309 309 309
322 321 322 321 318 321 322 324 324 321 323 323 323 323 323 324 323 324 325 324 323 322 321 320 318 317 318 316 316 314 313 311 311 310 310 309 308 310 309 308 308 308 307
317 323 322 322 321 321 321 323 322 321 320 321 319 314 315 317 321 322 322 321 321 320 319 318 317 316 317 315 315 313 312 310 308 307 307 307 308 308 308 307 307 306 306
318 319 323 323 322 320 320 321 320 320 318 320 316 311 311 310 311 314 319 320 319 318 317 316 315 316 316 314 313 311 310 307 306 306 307 307 307 307 306 306 306 305 305
313 319 320 322 322 319 320 320 320 319 317 316 316 314 312 313 309 309 311 313 315 315 314 315 314 315 314 313 311 308 305 304 306 306 306 306 306 305 305 305 305 304 304
312 317 318 319 321 319 318 318 318 319 318 316 314 315 314 311 310 309 306 308 309 311 311 313 313 314 313 311 309 306 300 298 302 304 304 304 304 304 304 304 303 302 302
311 312 314 317 317 318 317 317 317 317 317 317 316 315 312 311 307 306 306 305 307 308 308 310 311 310 310 309 307 303 297 296 299 301 302 303 303 303 303 302 301 301 301
310 309 310 313 317 316 317 317 317 316 316 316 316 315 312 310 308 306 304 304 304 305 306 306 306 305 304 303 301 300 295 295 297 297 300 301 301 301 300 299 299 299 299
312 310 310 310 313 316 316 317 317 316 315 316 316 315 313 311 310 307 305 302 300 298 301 303 302 302 301 300 299 297 295 293 293 295 297 298 298 297 297 297 297 298 298
313 312 310 311 311 315 316 317 316 316 316 316 315 314 314 314 311 311 306 302 298 296 296 297 298 298 299 298 298 296 294 292 292 291 290 292 292 292 294 295 296 296 296
312 312 311 310 311 313 315 316 316 316 316 315 314 314 313 313 313 311 312 311 302 298 296 296 297 297 297 297 296 296 294 292 291 289 289 288 287 287 291 293 294 294 294
309 310 310 310 310 313 314 315 315 316 315 315 314 313 313 312 308 307 308 306 304 301 298 297 296 296 296 296 295 294 293 291 291 290 288 287 287 287 289 292 292 292 292
308 308 310 310 310 313 314 315 315 314 313 314 313 311 312 311 310 309 308 304 304 302 297 295 296 296 294 294 293 293 291 291 289 288 287 287 287 287 290 290 290 290 291
310 309 309 309 311 313 313 314 314 314 313 313 312 311 310 310 309 309 308 306 304 303 299 294 295 293 293 293 293 292 290 289 288 286 286 288 288 288 290 290 289 289 289
311 310 309 310 312 313 313 313 313 312 310 310 308 307 308 308 306 306 305 303 301 301 301 298 293 292 292 291 291 290 289 287 286 286 287 287 286 288 288 288 288 288 287
310 310 311 311 312 311 311 312 311 310 308 306 306 307 307 306 306 305 304 303 301 299 297 295 292 291 290 289 290 289 287 287 287 286 286 286 286 285 285 286 287 286 286
306 309 308 310 309 310 309 309 309 307 305 304 303 303 304 304 304 304 302 299 298 297 295 292 290 290 289 288 287 286 286 286 286 286 286 286 284 284 285 284 284 284 286
301 307 306 304 304 305 309 307 307 303 302 301 299 300 298 299 298 297 297 296 296 295 293 290 289 289 287 287 286 286 286 285 285 286 285 284 284 284 284 283 283 284 285
299 299 300 300 300 299 299 299 302 300 297 295 294 294 293 293 293 293 292 292 292 292 292 292 290 287 286 286 286 286 286 285 285 284 284 284 283 283 283 283 282 283 285
296 296 296 297 296 295 296 294 294 295 294 293 293 293 293 292 292 291 291 290 289 289 289 288 287 287 286 285 285 285 284 284 283 283 283 283 283 283 283 282 282 284 284
295 295 295 295 294 294 294 294 294 293 292 291 291 291 291 290 289 289 289 288 287 286 286 286 286 285 285 284 284 284 284 283 283 283 283 282 282 282 282 282 282 283 282
293 294 294 294 294 293 293 292 292 291 290 290 289 288 288 288 287 287 288 287 286 285 285 284 284 284 284 284 283 283 283 282 282 282 282 282 282 281 281 281 281 281 281
Wind_Speed
8 7 11 15 20 25 28 29 26 19 17 18 14 13 18 18 12 19 14 10 21 25 22 20 17 17 16 16 16 15 14 13 12 13 12 11 10 11 10 10 9 8 7
8 9 10 9 13 19 23 21 20 18 17 14 15 15 17 16 17 19 16 15 21 23 22 20 18 17 16 15 15 14 13 12 11 11 11 12 11 11 10 9 8 8 7
13 13 12 14 14 15 19 18 16 16 13 6 13 13 14 19 17 16 19 21 21 21 22 21 19 18 16 15 14 14 13 12 11 10 10 10 10 9 8 8 7 7 6
17 16 15 13 13 12 13 19 23 22 22 20 15 11 17 18 16 19 23 22 24 23 21 21 21 17 16 14 14 12 13 11 10 9 9 8 7 7 7 7 6 5 4
18 19 17 15 12 12 14 22 24 30 26 25 26 20 18 17 18 19 21 20 24 25 22 21 20 19 17 15 13 12 12 11 10 8 7 5 4 5 6 6 4 3 3
18 23 20 16 13 15 16 21 25 26 24 24 22 20 16 17 18 17 21 21 22 21 23 23 21 19 18 16 13 12 11 10 8 7 6 4 5 5 4 3 4 3 3
20 22 23 19 16 19 20 24 25 30 18 28 26 17 15 17 23 23 25 23 22 19 20 22 22 20 19 17 15 12 12 9 7 5 5 4 5 5 3 2 2 2 3
20 19 24 23 22 18 23 26 27 23 12 25 13 9 2 2 10 18 22 24 23 22 20 20 20 21 22 19 17 13 11 8 6 6 5 5 5 4 2 1 1 2 4
18 20 20 25 24 21 23 27 31 30 16 27 22 9 4 3 4 7 16 21 23 22 20 22 22 24 24 24 21 16 10 7 6 5 5 4 3 2 2 2 2 4 4
17 20 22 23 28 27 28 29 31 33 26 24 25 10 7 11 4 3 5 15 19 22 20 25 26 26 24 21 17 13 10 10 7 5 4 4 3 3 3 4 5 5 5
21 20 18 25 27 31 30 32 32 32 30 29 26 19 11 12 12 4 3 6 14 14 15 20 23 23 22 20 17 14 10 10 7 5 4 4 3 3 4 6 6 6 6
23 23 24 20 29 31 33 35 35 34 30 29 29 26 19 10 11 7 3 7 9 12 18 19 21 22 19 16 15 13 11 10 9 6 4 3 3 3 4 6 7 7 7
24 22 23 23 25 32 32 34 36 35 36 31 32 29 27 20 23 15 12 7 4 6 7 17 19 19 20 17 16 13 13 13 9 6 4 1 2 3 4 5 7 7 8
28 26 23 25 25 30 32 33 35 34 32 34 28 29 27 26 26 31 16 18 3 3 7 7 20 21 20 20 17 16 13 13 11 9 7 6 6 5 4 6 7 7 7
25 27 26 26 27 28 31 31 33 33 30 33 31 35 31 29 27 29 28 27 14 5 7 15 12 23 22 21 19 17 16 14 11 9 8 8 10 8 5 6 6 7 7
26 27 27 28 28 29 30 31 29 30 32 30 31 33 33 27 24 26 25 28 20 9 4 10 19 20 24 21 17 16 15 14 12 11 9 10 10 8 5 4 4 7 9
27 28 28 32 27 29 29 28 30 31 29 30 31 33 32 34 27 22 19 20 12 11 7 5 16 17 21 20 18 15 14 13 11 9 9 10 8 9 6 4 5 7 8
23 21 26 23 25 27 27 28 32 30 30 29 30 31 32 32 29 25 22 24 21 18 12 10 12 20 18 19 17 15 13 11 10 8 8 6 7 5 5 7 8 8 8
17 17 18 18 25 28 29 30 31 29 26 29 29 30 32 30 27 26 24 21 16 17 15 16 13 20 18 16 15 12 10 9 7 5 4 6 4 4 6 8 7 7 7
13 11 10 20 26 28 33 29 29 25 21 22 23 27 28 28 30 26 25 22 17 15 12 20 15 21 18 14 11 8 6 5 5 5 5 6 6 9 8 6 5 7 7
2 12 10 15 26 28 29 29 25 23 22 19 18 20 20 20 21 21 20 21 21 18 18 20 16 15 10 9 9 7 6 4 5 5 5 6 11 6 4 5 7 6 9
11 9 13 18 22 25 23 25 26 27 26 26 24 21 18 16 13 14 15 14 16 21 22 19 13 17 11 11 10 7 4 1 1 4 7 12 6 5 6 9 9 11 9
12 14 13 13 19 22 25 25 30 30 30 27 27 27 24 19 19 20 19 17 14 13 14 18 24 17 15 11 10 7 4 1 1 4 9 7 7 7 9 14 16 9 5
20 18 21 23 23 22 27 24 29 30 29 26 25 24 25 24 23 24 25 24 21 18 16 16 15 13 11 10 7 5 3 2 5 3 1 5 7 14 19 17 5 2 3
25 25 24 26 24 25 26 26 29 29 28 25 24 24 26 25 23 24 27 29 27 24 19 17 15 13 11 9 7 4 3 1 1 1 4 4 7 19 21 8 3 5 8
26 28 26 26 23 24 22 24 27 31 30 27 24 22 21 23 23 23 26 27 27 21 18 16 14 12 9 7 6 5 3 3 2 2 1 8 6 9 9 7 5 15 21
Wind_Direction
275 272 257 255 249 230 219 217 218 222 211 197 212 223 204 207 232 195 200 189 178 162 152 151 150 145 145 142 138 137 136 133 130 127 123 119 118 117 111 106 105 98 90
249 261 275 266 250 240 222 211 204 198 197 202 212 214 204 220 205 196 183 164 157 152 151 151 152 150 149 147 145 142 139 135 134 133 128 125 121 116 112 107 102 94 87
273 268 266 273 251 252 246 241 193 180 154 201 200 206 202 185 182 185 171 163 169 170 160 156 152 154 152 153 149 146 144 141 136 132 128 126 125 123 120 114 107 100 93
265 264 268 271 259 233 236 219 194 187 181 170 174 164 165 164 165 173 169 169 164 167 165 160 155 155 157 158 152 151 147 143 139 138 136 133 129 126 122 113 102 95 86
261 254 257 268 247 221 224 197 187 181 174 167 159 156 157 158 158 172 170 181 177 169 170 167 162 156 162 157 156 154 150 146 142 140 136 129 124 126 128 118 103 85 78
253 253 251 255 227 218 219 219 209 189 182 170 162 170 169 172 168 178 171 174 175 175 176 170 167 166 170 159 161 159 154 148 146 146 146 142 132 135 123 97 90 66 33
266 243 243 241 219 213 219 214 198 185 154 172 144 135 145 163 166 169 169 175 177 179 182 172 173 170 171 165 163 166 157 151 151 152 149 142 143 144 134 111 69 23 1
268 256 242 234 213 208 214 209 193 178 175 183 170 119 143 106 134 167 175 177 187 186 182 180 178 179 176 172 167 168 159 156 157 154 153 157 158 162 166 175 332 345 336
270 263 251 238 227 229 212 218 210 194 184 187 186 153 175 159 136 160 167 172 182 180 183 184 187 189 186 182 181 185 181 161 163 166 170 175 182 198 223 257 300 311 312
285 268 261 247 234 227 225 225 223 219 198 191 192 208 176 151 157 152 201 182 183 182 179 188 184 188 191 194 199 213 208 193 181 169 183 192 207 225 259 291 299 303 302
279 278 274 257 245 242 229 230 219 212 204 196 203 205 179 160 136 141 153 181 188 192 177 181 186 191 200 206 211 214 212 201 191 173 171 194 213 237 272 295 301 302 300
276 274 272 275 253 243 232 225 220 218 213 205 200 202 187 165 182 152 129 161 168 186 196 190 192 197 200 206 213 211 212 210 207 192 166 189 212 255 279 295 304 299 301
279 268 274 271 268 249 236 225 218 211 214 207 201 207 199 191 169 155 134 141 154 164 185 204 202 208 212 211 213 214 212 218 224 200 162 190 258 274 283 297 302 295 298
273 267 278 272 266 254 237 228 216 210 207 213 207 204 203 201 194 188 159 150 123 170 184 175 195 204 214 214 213 214 221 225 228 238 229 242 264 276 289 302 301 288 286
281 267 268 271 264 259 239 225 210 202 203 206 208 208 203 202 207 205 203 189 152 170 200 197 186 206 214 215 214 213 216 221 224 233 246 260 264 269 286 293 292 289 289
277 270 264 265 260 253 232 219 202 209 208 208 209 206 204 196 194 189 190 185 180 154 159 193 200 196 202 211 217 219 216 225 233 239 247 254 264 273 263 250 279 289 295
276 262 259 259 253 240 224 211 203 208 205 206 210 199 199 195 186 186 188 188 181 182 136 142 193 199 197 208 203 214 226 232 240 243 249 252 260 269 254 233 287 291 293
282 261 256 255 244 221 210 199 193 200 197 200 200 196 189 188 189 188 189 194 198 196 161 143 171 171 193 197 213 216 223 233 248 252 251 257 271 256 243 285 293 293 284
290 260 256 262 226 196 190 187 194 192 188 192 187 178 179 181 177 178 177 194 191 190 185 167 152 175 175 185 191 204 222 243 249 253 261 267 277 269 279 280 295 291 287
299 266 281 224 193 179 180 184 182 182 183 175 172 174 177 179 180 182 181 188 190 177 175 166 151 160 165 175 196 209 217 239 263 270 256 263 281 278 271 280 287 293 307
326 194 144 147 166 178 177 175 173 175 174 162 152 160 165 175 182 181 182 179 184 177 171 157 138 151 155 169 185 189 195 219 264 240 259 279 301 284 268 287 300 295 301
79 126 141 147 150 163 171 174 165 158 154 152 145 139 138 151 163 182 183 185 191 176 163 150 148 152 159 165 167 174 180 176 230 240 310 312 300 290 286 304 296 299 304
78 92 109 115 122 128 142 146 155 146 142 141 136 137 131 134 140 135 133 139 141 156 166 165 154 153 153 161 161 161 171 187 284 323 318 307 285 279 292 313 306 292 282
81 79 92 106 111 115 120 116 132 136 134 136 140 143 143 147 149 146 137 126 120 123 130 134 138 137 143 145 149 139 118 3 310 289 275 265 293 307 322 324 296 158 243
83 81 88 96 103 105 115 129 127 125 126 132 140 142 144 146 146 143 134 125 120 112 116 120 122 123 129 132 123 121 93 36 281 230 308 317 319 326 324 327 196 200 294
87 90 86 89 99 109 120 134 137 133 124 124 124 127 133 132 140 144 136 130 121 124 128 124 116 114 112 111 112 84 75 46 351 303 288 344 311 341 321 307 269 288 308